Vertical_Velocity
-0 -1 1 -1 -1 -3 -2 -0 -2 -4 -0 1 2 3 2 2 3 4 2 0 -3 4
2 -0 -1 2 2 -2 -2 -3 2 6 1 -2 3 1 10 0 1 2 6 5 2 1
0 1 1 -0 -6 -2 5 0 -3 1 -1 -1 -8 6 17 0 2 -0 2 4 4 2
3 5 1 -1 -2 -5 1 1 -7 -0 11 -0 -5 6 -6 9 5 1 2 -0 3 3
22 7 -3 0 -2 -2 -2 -1 -4 -8 13 -5 3 3 16 12 2 4 0 1 3 4
5 -6 -4 -1 -1 -1 -0 0 2 -6 12 -9 5 -1 8 1 4 9 2 3 5 6
-3 -0 -0 -2 -1 -3 -2 1 -1 -3 -9 -2 -1 6 12 7 -5 -0 -1 3 3 -1
-7 -5 0 -1 -4 -1 -1 -3 -1 1 -0 0 -2 2 2 0 -3 -2 -2 3 2 0
-2 -7 -5 -3 -2 -1 -2 -1 -1 -1 -5 -0 0 -1 3 1 -0 -8 2 -3 -2 3
-1 -3 -3 -2 -1 -0 -2 -1 -2 -2 0 1 -4 -6 1 1 3 3 -4 -4 3 -0
-9 3 3 3 1 8 -3 5 -4 1 -4 3 9 0 5 15 6 24 11 1 3 12
12 11 -1 -3 -1 -1 -1 -6 12 1 0 21 -1 -3 1 -7 -5 12 -2 -3 7 5
7 7 2 1 14 4 1 15 -1 12 9 3 14 10 6 1 -5 -11 10 -5 5 5
2 -0 7 5 4 2 3 -6 5 -7 -1 -5 2 3 3 2 0 -3 4 2 2 2
Height
3067 3071 3075 3078 3081 3085 3089 3093 3098 3100 3102 3105 3109 3113 3117 3120 3123 3127 3130 3133 3136 3139
3061 3064 3068 3072 3074 3077 3081 3085 3088 3091 3093 3096 3098 3103 3107 3112 3117 3119 3123 3127 3130 3132
3053 3057 3061 3064 3067 3070 3073 3076 3079 3082 3083 3085 3088 3094 3099 3104 3108 3111 3115 3119 3122 3125
3047 3050 3053 3056 3059 3061 3064 3067 3069 3073 3075 3078 3080 3085 3089 3093 3098 3103 3107 3111 3114 3118
3040 3043 3046 3050 3051 3054 3055 3057 3060 3063 3066 3069 3072 3075 3078 3082 3090 3095 3098 3103 3106 3110
3035 3040 3042 3043 3043 3044 3046 3049 3052 3054 3059 3061 3064 3066 3069 3073 3081 3085 3091 3095 3099 3103
3029 3034 3036 3036 3037 3038 3039 3040 3044 3047 3051 3054 3056 3058 3061 3064 3072 3076 3081 3086 3090 3093
3025 3028 3029 3032 3031 3032 3034 3035 3036 3038 3040 3043 3046 3050 3053 3055 3059 3067 3071 3077 3081 3086
3021 3024 3025 3027 3029 3031 3032 3031 3032 3033 3035 3036 3039 3041 3044 3047 3050 3057 3062 3067 3072 3078
3014 3018 3021 3023 3025 3027 3029 3030 3030 3032 3032 3033 3036 3038 3040 3041 3045 3049 3055 3059 3066 3070
3008 3012 3015 3017 3019 3021 3025 3026 3028 3030 3031 3033 3034 3038 3039 3042 3045 3047 3050 3052 3058 3060
3004 3007 3011 3014 3017 3019 3020 3023 3025 3026 3030 3031 3032 3035 3037 3039 3041 3044 3045 3047 3048 3052
2999 3003 3006 3010 3012 3016 3018 3019 3022 3024 3027 3030 3030 3033 3034 3037 3039 3042 3041 3044 3046 3047
2994 2998 3000 3004 3007 3011 3014 3016 3019 3021 3023 3025 3027 3029 3032 3034 3037 3038 3039 3041 3042 3043